North Bend, OR

2:04 PM PDT on April 25, 2018 (GMT -0700)
North Bend Municipal

Weather History for KOTH - May, 2012

Change the Weather History Date:

Monday, May 7, 2012

  Actual Average Record
Temperature  
Mean Temperature 55 °F 52 °F  
Max Temperature 66 °F 58 °F 74 °F (1987)
Min Temperature 43 °F 46 °F 35 °F (1929)
Degree Days  
Heating Degree Days 10 13  
Month to date heating degree days 109 95  
Since 1 July heating degree days 4328 4281  
Cooling Degree Days 0 0  
Month to date cooling degree days 0 0  
Year to date cooling degree days 0 0  
Growing Degree Days 4 (Base 50)    
Moisture  
Dew Point 43 °F    
Average Humidity 67    
Maximum Humidity 77    
Minimum Humidity 48    
Precipitation  
Precipitation 0.00 in 0.12 in 2.16 in (1991)
Month to date precipitation 1.01 0.84  
Year to date precipitation 24.75 31.62  
Sea Level Pressure  
Sea Level Pressure 30.23 in    
Wind  
Wind Speed 10 mph (North)    
Max Wind Speed 23 mph    
Max Gust Speed 30 mph    
Visibility 9 miles    
Events      
T = Trace of Precipitation, MM = Missing Value Source: NWS Daily Summary

Daily Weather History Graph

Daily Weather History Graph

Search for Another Location

Airport or City:

Astronomy

May. 07, 2012 Rise Set
Actual Time 6:01 AM PDT 8:26 PM PDT
Civil Twilight 5:29 AM PDT 8:58 PM PDT
Nautical Twilight 4:49 AM PDT 9:38 PM PDT
Astronomical Twilight 4:04 AM PDT 10:23 PM PDT
Moon 10:47 PM PDT (5/7) 7:09 AM PDT (5/7)
Length of Visible Light 15h 29m
Length of Day
14h 25m
Waning Gibbous, 96% of the Moon is Illuminated
May 7
Waning Gibbous
May 12
Last Quarter
May 20
New
May 28
First Quarter
Jun 4
Full

Hourly Weather History & Observations

Time (PDT) Temp. Windchill Dew Point Humidity Pressure Visibility Wind Dir Wind Speed Gust Speed Precip Events Conditions
12:15 AM 48.2 °F - 39.2 °F 71% 30.33 in 10.0 mi NNE 3.5 mph - N/A   Clear
12:35 AM 46.4 °F - 39.2 °F 76% 30.33 in 10.0 mi Calm Calm - N/A   Clear
12:55 AM 46.4 °F 45.2 °F 39.2 °F 76% 30.33 in 10.0 mi NNE 3.5 mph - N/A   Clear
1:15 AM 46.4 °F 45.2 °F 37.4 °F 71% 30.32 in 10.0 mi SE 3.5 mph - N/A   Clear
1:35 AM 44.6 °F 42.2 °F 37.4 °F 76% 30.31 in 10.0 mi SE 4.6 mph - N/A   Clear
1:55 AM 44.6 °F - 37.4 °F 76% 30.31 in 10.0 mi Calm Calm - N/A   Clear
2:15 AM 46.4 °F 43.5 °F 37.4 °F 71% 30.32 in 10.0 mi WNW 5.8 mph - N/A   Clear
2:35 AM 44.6 °F - 37.4 °F 76% 30.31 in 10.0 mi Calm Calm - N/A   Clear
2:55 AM 48.2 °F - 39.2 °F 71% 30.30 in 10.0 mi NNE 5.8 mph - N/A   Mostly Cloudy
3:15 AM 48.2 °F - 39.2 °F 71% 30.29 in 10.0 mi NNE 5.8 mph - N/A   Mostly Cloudy
3:35 AM 46.4 °F - 37.4 °F 71% 30.29 in 10.0 mi Calm Calm - N/A   Clear
3:55 AM 44.6 °F - 37.4 °F 76% 30.29 in 10.0 mi Calm Calm - N/A   Clear
4:15 AM 44.6 °F 40.7 °F 37.4 °F 76% 30.28 in 0.5 mi SE 6.9 mph - N/A   Overcast
4:35 AM 46.4 °F 42.4 °F 37.4 °F 71% 30.27 in 0.5 mi SE 8.1 mph - N/A   Overcast
4:55 AM 44.6 °F 40.7 °F 37.4 °F 76% 30.27 in 0.5 mi SE 6.9 mph - N/A   Overcast
5:15 AM 44.6 °F 43.1 °F 37.4 °F 76% 30.27 in 1.0 mi SE 3.5 mph - N/A   Overcast
5:35 AM 44.6 °F - 37.4 °F 76% 30.27 in 2.0 mi Calm Calm - N/A   Overcast
5:55 AM 44.6 °F - 37.4 °F 76% 30.27 in 0.2 mi Calm Calm - N/A   Overcast
6:15 AM 42.8 °F - 35.6 °F 76% 30.26 in 0.2 mi Calm Calm - N/A   Overcast
6:35 AM 44.6 °F 43.1 °F 35.6 °F 71% 30.26 in 0.2 mi ESE 3.5 mph - N/A   Overcast
6:55 AM 44.6 °F - 37.4 °F 76% 30.25 in 6.0 mi Calm Calm - N/A   Partly Cloudy
7:15 AM 46.4 °F 44.3 °F 39.2 °F 76% 30.25 in 8.0 mi SE 4.6 mph - N/A   Clear
7:35 AM 46.4 °F - 39.2 °F 76% 30.25 in 8.0 mi Calm Calm - N/A   Partly Cloudy
7:55 AM 48.2 °F - 39.2 °F 71% 30.25 in 4.0 mi Calm Calm - N/A   Clear
8:15 AM 48.2 °F - 41.0 °F 76% 30.24 in 10.0 mi NNW 3.5 mph - N/A   Clear
8:35 AM 50.0 °F - 42.8 °F 76% 30.24 in 10.0 mi Calm Calm - N/A   Clear
8:55 AM 53.6 °F - 44.6 °F 72% 30.24 in 10.0 mi WNW 3.5 mph - N/A   Clear
9:15 AM 55.4 °F - 44.6 °F 67% 30.24 in 10.0 mi Calm Calm - N/A   Clear
9:35 AM 59.0 °F - 44.6 °F 59% 30.23 in 10.0 mi North 6.9 mph - N/A   Clear
9:55 AM 60.8 °F - 44.6 °F 55% 30.23 in 10.0 mi North 5.8 mph - N/A   Clear
10:15 AM 60.8 °F - 46.4 °F 59% 30.23 in 10.0 mi NNW 8.1 mph - N/A   Clear
10:35 AM 60.8 °F - 46.4 °F 59% 30.22 in 10.0 mi North 13.8 mph - N/A   Clear
10:55 AM 62.6 °F - 46.4 °F 55% 30.22 in 10.0 mi NNW 12.7 mph - N/A   Clear
11:15 AM 60.8 °F - 46.4 °F 59% 30.22 in 10.0 mi NNW 16.1 mph - N/A   Clear
11:35 AM 60.8 °F - 46.4 °F 59% 30.22 in 10.0 mi North 18.4 mph 21.9 mph N/A   Clear
11:55 AM 60.8 °F - 46.4 °F 59% 30.21 in 10.0 mi North 18.4 mph - N/A   Clear
12:15 PM 62.6 °F - 46.4 °F 55% 30.21 in 10.0 mi North 18.4 mph - N/A   Clear
12:35 PM 62.6 °F - 48.2 °F 59% 30.20 in 10.0 mi NNW 16.1 mph 19.6 mph N/A   Clear
12:55 PM 62.6 °F - 46.4 °F 55% 30.20 in 10.0 mi North 18.4 mph 23.0 mph N/A   Clear
1:15 PM 60.8 °F - 46.4 °F 59% 30.20 in 10.0 mi North 23.0 mph 27.6 mph N/A   Clear
1:35 PM 60.8 °F - 46.4 °F 59% 30.19 in 10.0 mi North 21.9 mph 27.6 mph N/A   Clear
1:55 PM 60.8 °F - 44.6 °F 55% 30.19 in 10.0 mi North 23.0 mph - N/A   Clear
2:15 PM 62.6 °F - 46.4 °F 55% 30.19 in 10.0 mi North 16.1 mph - N/A   Clear
2:35 PM 62.6 °F - 46.4 °F 55% 30.19 in 10.0 mi North 17.3 mph 24.2 mph N/A   Clear
2:55 PM 62.6 °F - 44.6 °F 52% 30.18 in 10.0 mi North 18.4 mph 25.3 mph N/A   Clear
3:15 PM 64.4 °F - 46.4 °F 52% 30.16 in 10.0 mi North 19.6 mph - N/A   Clear
3:35 PM 66.2 °F - 44.6 °F 46% 30.15 in 10.0 mi North 17.3 mph - N/A   Clear
3:55 PM 66.2 °F - 46.4 °F 49% 30.15 in 10.0 mi NNW 17.3 mph 20.7 mph N/A   Clear
4:15 PM 62.6 °F - 44.6 °F 52% 30.16 in 10.0 mi NNW 19.6 mph 27.6 mph N/A   Clear
4:35 PM 59.0 °F - 46.4 °F 63% 30.16 in 10.0 mi NNW 21.9 mph 27.6 mph N/A   Clear
4:55 PM 57.2 °F - 46.4 °F 67% 30.17 in 10.0 mi North 23.0 mph 29.9 mph N/A   Clear
5:15 PM 57.2 °F - 44.6 °F 63% 30.16 in 10.0 mi North 24.2 mph 29.9 mph N/A   Clear
5:35 PM 57.2 °F - 44.6 °F 63% 30.16 in 10.0 mi NNW 23.0 mph 29.9 mph N/A   Clear
5:55 PM 57.2 °F - 46.4 °F 67% 30.17 in 10.0 mi North 20.7 mph 25.3 mph N/A   Clear
6:15 PM 57.2 °F - 46.4 °F 67% 30.17 in 10.0 mi NNW 15.0 mph 19.6 mph N/A   Clear
6:35 PM 55.4 °F - 44.6 °F 67% 30.18 in 10.0 mi NNW 17.3 mph 25.3 mph N/A   Clear
6:55 PM 55.4 °F - 44.6 °F 67% 30.19 in 10.0 mi NNW 17.3 mph 24.2 mph N/A   Scattered Clouds
7:15 PM 53.6 °F - 44.6 °F 72% 30.19 in 10.0 mi NNW 18.4 mph 25.3 mph N/A   Mostly Cloudy
7:35 PM 53.6 °F - 44.6 °F 72% 30.19 in 10.0 mi NNW 15.0 mph 19.6 mph N/A   Overcast
7:55 PM 53.6 °F - 44.6 °F 72% 30.20 in 10.0 mi North 12.7 mph 21.9 mph N/A   Overcast
8:15 PM 53.6 °F - 44.6 °F 72% 30.20 in 10.0 mi NNW 13.8 mph - N/A   Overcast
8:35 PM 53.6 °F - 44.6 °F 72% 30.21 in 10.0 mi NNW 10.4 mph 17.3 mph N/A   Overcast
8:55 PM 53.6 °F - 44.6 °F 72% 30.21 in 10.0 mi North 13.8 mph - N/A   Overcast
9:15 PM 53.6 °F - 42.8 °F 67% 30.22 in 10.0 mi North 10.4 mph - N/A   Overcast
9:35 PM 51.8 °F - 42.8 °F 71% 30.23 in 10.0 mi North 9.2 mph - N/A   Overcast
9:55 PM 51.8 °F - 42.8 °F 71% 30.23 in 10.0 mi NW 6.9 mph - N/A   Overcast
10:15 PM 51.8 °F - 44.6 °F 76% 30.23 in 10.0 mi NNW 6.9 mph - N/A   Overcast
10:35 PM 51.8 °F - 44.6 °F 76% 30.23 in 10.0 mi NNW 8.1 mph - N/A   Overcast
10:55 PM 51.8 °F - 44.6 °F 76% 30.23 in 10.0 mi NNW 9.2 mph - N/A   Overcast
11:15 PM 51.8 °F - 42.8 °F 71% 30.24 in 10.0 mi NNW 9.2 mph - N/A   Overcast
11:35 PM 51.8 °F - 42.8 °F 71% 30.24 in 10.0 mi North 12.7 mph - N/A   Overcast
11:55 PM 51.8 °F - 42.8 °F 71% 30.24 in 10.0 mi North 10.4 mph - N/A   Overcast